This is the latest recevied weather packets stored in our database for station/object HG8GL-6. If no packets are shown the sender has not sent any weather packets the latest 10 day(s).
| Time | Temp. | Humidity | Pressure | Rain* | Wind** | Luminosity | Snow |
|---|---|---|---|---|---|---|---|
| 1778033116 | 12.22° C | 64% | 1013 hPa | 0 mm | - | - | - |
| 1778032516 | 12.78° C | 63% | 1013 hPa | 0 mm | - | - | - |
| 1778031226 | 12.78° C | 61% | 1013 hPa | 0 mm | - | - | - |
| 1778027596 | 14.44° C | 55% | 1012 hPa | 0 mm | - | - | - |
| 1778026336 | 15° C | 54% | 1012 hPa | 0 mm | - | - | - |
| 1778023876 | 15.56° C | 55% | 1012 hPa | 0 mm | - | - | - |
| 1778020756 | 14.44° C | 48% | 1012 hPa | 0 mm | - | - | - |
| 1778020126 | 15° C | 47% | 1012 hPa | 0 mm | - | - | - |
| 1778018866 | 16.11° C | 45% | 1012 hPa | 0 mm | - | - | - |
| 1778016976 | 17.22° C | 44% | 1012 hPa | 0 mm | - | - | - |
| 1778016346 | 17.78° C | 44% | 1012 hPa | 0 mm | - | - | - |
| 1778013196 | 19.44° C | 38% | 1012 hPa | 0 mm | - | - | - |
| 1778012566 | 19.44° C | 36% | 1012 hPa | 0 mm | - | - | - |
| 1778011936 | 19.44° C | 35% | 1012 hPa | 0 mm | - | - | - |
| 1778011336 | 19.44° C | 34% | 1012 hPa | 0 mm | - | - | - |
| 1778010736 | 19.44° C | 34% | 1011 hPa | 0 mm | - | - | - |
| 1778009476 | 18.89° C | 34% | 1011 hPa | 0 mm | - | - | - |
| 1778008875 | 18.89° C | 34% | 1010 hPa | 0 mm | - | - | - |
| 1778008276 | 18.89° C | 34% | 1010 hPa | 0 mm | - | - | - |
| 1778005785 | 20.56° C | 31% | 1010 hPa | 0 mm | - | - | - |
| 1778005185 | 21.67° C | 29% | 1011 hPa | 0 mm | - | - | - |
| 1778002725 | 24.44° C | 24% | 1010 hPa | 0 mm | - | - | - |
| 1778002095 | 24.44° C | 24% | 1010 hPa | 0 mm | - | - | - |
| 1778001495 | 25° C | 23% | 1011 hPa | 0 mm | - | - | - |
| 1778000295 | 25.56° C | 22% | 1010 hPa | 0 mm | - | - | - |
* Rain latest hour (hover to see other rain measurements)
** Current wind speed in m/s (hover to see current wind gust speed)